• MPC Preparation (Info)

  • MPEC 2015-H06 : 2015 GQ13

    The following Minor Planet Electronic Circular may be linked-to from your own Web pages, but must not otherwise be redistributed electronically.

    A form allowing access to any MPEC is at the bottom of this page.


    Read MPEC 2015-H05 Read MPEC 2015-H07


    M.P.E.C. 2015-H06                                Issued 2015 Apr. 16, 14:08 UT
    
         The Minor Planet Electronic Circulars contain information on unusual
             minor planets and routine data on comets.  They are published
       on behalf of Commission 20 of the International Astronomical Union by the
              Minor Planet Center, Smithsonian Astrophysical Observatory,
                              Cambridge, MA 02138, U.S.A.
    
                 Prepared using the Tamkin Foundation Computer Network
    
                                  MPC@CFA.HARVARD.EDU
                URL https://www.minorplanetcenter.net/    ISSN 1523-6714
    
                                       2015 GQ13
    
    Observations:
         K15G13Q* C2015 04 12.40814 16 04 20.482+07 27 02.97         21.2 wLEH006F51
         K15G13Q  C2015 04 12.44750 16 04 19.118+07 27 40.24         21.0 wLEH006F51
         K15G13Q  C2015 04 12.45968 16 04 18.699+07 27 51.69         20.8 wLEH006F51
         K15G13Q  C2015 04 12.47189 16 04 18.264+07 28 03.06         21.0 wLEH006F51
         K15G13Q KC2015 04 14.48488 16 03 08.02 +07 59 31.2                oEH006291
         K15G13Q KC2015 04 14.48777 16 03 07.91 +07 59 33.9                oEH006291
         K15G13Q KC2015 04 14.49066 16 03 07.80 +07 59 36.3          21.7 RoEH006291
         K15G13Q  C2015 04 15.05170 16 02 47.46 +08 08 15.1          20.8 VMEH006033
         K15G13Q  C2015 04 15.05860 16 02 47.18 +08 08 21.4          20.8 VMEH006033
         K15G13Q  C2015 04 15.06549 16 02 46.89 +08 08 27.7          21.1 VMEH006033
         K15G13Q  C2015 04 15.08698 16 02 46.08 +08 08 47.7          21.4 VMEH006033
         K15G13Q  C2015 04 15.10077 16 02 45.51 +08 09 00.4          21.4 VMEH006033
         K15G13Q  C2015 04 15.40736 16 02 34.25 +08 13 44.2          21.0 RoEH006926
         K15G13Q  C2015 04 15.42215 16 02 33.62 +08 13 57.8          21.2 RoEH006926
         K15G13Q  C2015 04 15.43324 16 02 33.16 +08 14 08.7          21.0 RoEH006926
    
    Observer details:
    033 Karl Schwarzschild Observatory, Tautenburg.  Observers B. Stecklum,
        F. Ludwig.  Measurer B. Stecklum.  1.34-m f/4 Schmidt + CCD.
    291 LPL/Spacewatch II.  Observer J. V. Scotti.  1.8-m f/2.7 reflector + CCD.
    926 Tenagra II Observatory.  Observers M. Schwartz, P. R. Holvorcem.  Measurer
        M. Schwartz.  0.81-m f/7 Ritchey-Chretien + CCD.
    F51 Pan-STARRS 1, Haleakala.  Observers R. Anderson, B. Gibson, T. Goggia,
        N. Primak, A. Schultz, M. Willman.  Measurers K. Chambers, S. Chastel,
        L. Denneau, H. Flewelling, M. Huber, E. Magnier, E. Schunova, R. Wainscoat,
        C. Waters, R. Weryk.  1.8-m Ritchey-Chretien + CCD.
    
    Orbital elements:
    2015 GQ13
    Epoch 2015 June 27.0 TT = JDT 2457200.5                 MPC
    M  38.87779              (2000.0)            P               Q
    n   0.13231847     Peri.  301.40398     -0.63878179     -0.76425145
    a   3.8140737      Node   189.88673     +0.75380492     -0.64476564
    e   0.6038252      Incl.   31.12582     -0.15406483     +0.01403567
    P   7.45           H   16.8           G   0.15           U   8
    Residuals in seconds of arc
    150412 F51  0.2-  0.2+    150414 291  0.1-  0.1+    150415 033  0.2-  0.0
    150412 F51  0.1-  0.1+    150414 291  0.1-  0.2-    150415 033  0.9-  0.0
    150412 F51  0.0   0.0     150415 033  0.2+  0.0     150415 926  0.7+  0.3-
    150412 F51  0.1-  0.3-    150415 033  0.0   0.0     150415 926  0.1-  0.3-
    150414 291  0.0   0.1+    150415 033  0.4-  0.1-    150415 926  0.5-  0.4+
    
    Ephemeris:
    2015 GQ13                a,e,i = 3.81, 0.60, 31                  q = 1.5110
    Date    TT    R. A. (2000) Decl.     Delta      r     Elong.  Phase     V
    2015 03 17    16 09 23.2 +00 12 43   1.8494  2.4285   113.9    22.0    21.1
    ...
    2015 04 01    16 08 58.7 +04 20 44   1.7984  2.5286   127.0    18.4    21.0
    ...
    2015 04 09    16 06 05.0 +06 32 33   1.7868  2.5817   133.7    16.3    21.0
    ...
    2015 04 15    16 02 49.4 +08 07 30   1.7867  2.6215   138.2    14.8    21.0
    2015 04 16    16 02 11.8 +08 22 49   1.7875  2.6281   139.0    14.5    21.0
    2015 04 17    16 01 33.0 +08 37 59   1.7884  2.6348   139.7    14.3    21.0
    ...
    2015 04 23    15 57 15.2 +10 04 47   1.7993  2.6744   143.4    13.0    21.0
    ...
    2015 05 01    15 50 40.1 +11 47 00   1.8275  2.7270   146.8    11.7    21.0
    ...
    2015 05 16    15 37 14.0 +14 06 25   1.9234  2.8248   146.9    11.3    21.2
    
    A. U. Tomatic                (C) Copyright 2015 MPC           M.P.E.C. 2015-H06
    

    Read MPEC 2015-H05 Read MPEC 2015-H07


    MPEC number:

    Enter an MPEC number in one of the following forms:

    • 1997-B01 (the full form)
    • J97B01 (the packed version of the full form)
    • B01 (the abbreviated form)